RYS4R EPKT-LGRP

Flight info

Callsign RYS4R
Flight time N/A
Altitude 37000
Route REGTO T195 RAZEC N133 KEKED DCT PERIT DCT NARKA DCT LOMOS DCT NIKTI DCT MES UN139 LURUS UL995 CODIC
Aircraft B738/M-SDFGIJ1LRWY/SB1

Departure

Time 2026-05-08 00:23
Airport Katowice Wojciech Korfanty International Airport (EPKT)

Arrival

Time N/A
Airport Rhodes International Airport "Diagoras" (LGRP)
Time Latitude Longitude Altitude Speed Heading
2026-05-07 23:34 50.47144 19.07858 1003 ft 0 kts 180°
2026-05-08 00:14 50.47155 19.07858 1003 ft 2 kts 180°
2026-05-08 00:14 50.47169 19.07858 1003 ft 2 kts 180°
2026-05-08 00:14 50.47185 19.07858 1003 ft 2 kts 180°
2026-05-08 00:15 50.47200 19.07858 1003 ft 2 kts 180°
2026-05-08 00:15 50.47209 19.07858 1003 ft 2 kts 178°
2026-05-08 00:15 50.47223 19.07849 1003 ft 2 kts 135°
2026-05-08 00:15 50.47231 19.07829 1003 ft 2 kts 101°
2026-05-08 00:16 50.47232 19.07818 1003 ft 1 kts 84°
2026-05-08 00:16 50.47231 19.07811 1003 ft 0 kts 89°
2026-05-08 00:18 50.47231 19.07812 1003 ft 0 kts 89°
2026-05-08 00:19 50.47232 19.07850 1003 ft 5 kts 89°
2026-05-08 00:19 50.47232 19.07940 1003 ft 10 kts 89°
2026-05-08 00:19 50.47232 19.08081 1003 ft 15 kts 90°
2026-05-08 00:19 50.47233 19.08267 1003 ft 19 kts 89°
2026-05-08 00:20 50.47233 19.08481 1003 ft 23 kts 90°
2026-05-08 00:20 50.47234 19.08723 1003 ft 27 kts 89°
2026-05-08 00:20 50.47232 19.09025 1003 ft 27 kts 90°
2026-05-08 00:20 50.47233 19.09318 1003 ft 26 kts 89°
2026-05-08 00:21 50.47234 19.09598 1003 ft 24 kts 90°
2026-05-08 00:21 50.47232 19.09858 1003 ft 23 kts 90°
2026-05-08 00:21 50.47274 19.10059 1003 ft 19 kts 51°
2026-05-08 00:21 50.47355 19.10220 1003 ft 17 kts 52°
2026-05-08 00:22 50.47426 19.10365 1003 ft 15 kts 52°
2026-05-08 00:22 50.47515 19.10412 1003 ft 13 kts
2026-05-08 00:22 50.47590 19.10352 1003 ft 13 kts 288°
2026-05-08 00:22 50.47596 19.10114 1003 ft 43 kts 270°
2026-05-08 00:23 50.47597 19.09238 1003 ft 115 kts 270°
2026-05-08 00:23 50.47602 19.07654 1015 ft 174 kts 271°
2026-05-08 00:23 50.47612 19.05713 1717 ft 180 kts 273°
2026-05-08 00:23 50.47636 19.03756 2519 ft 185 kts 273°
2026-05-08 00:24 50.47658 19.01653 2959 ft 204 kts 272°
2026-05-08 00:24 50.47675 18.99336 3353 ft 227 kts 269°
2026-05-08 00:24 50.47279 18.96887 4026 ft 240 kts 242°
2026-05-08 00:24 50.46202 18.94983 5088 ft 236 kts 216°
2026-05-08 00:25 50.44671 18.93908 5672 ft 253 kts 192°
2026-05-08 00:25 50.42869 18.93752 6313 ft 267 kts 181°
2026-05-08 00:25 50.40969 18.93775 7007 ft 278 kts 181°
2026-05-08 00:25 50.39056 18.93772 7906 ft 280 kts 181°
2026-05-08 00:26 50.37108 18.93757 8800 ft 283 kts 182°
2026-05-08 00:26 50.35162 18.93740 9665 ft 285 kts 182°
2026-05-08 00:26 50.33180 18.93726 10466 ft 289 kts 182°
2026-05-08 00:26 50.31115 18.93866 10938 ft 307 kts 173°
2026-05-08 00:27 50.29034 18.94914 11413 ft 325 kts 152°
2026-05-08 00:27 50.27259 18.97225 11886 ft 343 kts 134°
2026-05-08 00:27 50.25680 19.00108 12345 ft 359 kts 131°
2026-05-08 00:27 50.24098 19.03144 13109 ft 364 kts 130°
2026-05-08 00:28 50.22496 19.06215 13875 ft 368 kts 131°
2026-05-08 00:28 50.20885 19.09263 14679 ft 371 kts 131°
2026-05-08 00:28 50.19220 19.12377 15450 ft 375 kts 131°
2026-05-08 00:28 50.17554 19.15469 16202 ft 379 kts 131°
2026-05-08 00:29 50.15887 19.18546 17299 ft 371 kts 132°
2026-05-08 00:29 50.14235 19.21591 18410 ft 363 kts 132°
2026-05-08 00:29 50.12644 19.24517 19486 ft 354 kts 133°
2026-05-08 00:29 50.11095 19.27363 20497 ft 346 kts 133°
2026-05-08 00:30 50.09568 19.30166 21400 ft 340 kts 134°
2026-05-08 00:30 50.08039 19.32966 22034 ft 342 kts 134°
2026-05-08 00:30 50.06515 19.35759 22861 ft 337 kts 135°
2026-05-08 00:30 50.05014 19.38506 23464 ft 338 kts 135°
2026-05-08 00:31 50.03480 19.41309 24043 ft 340 kts 135°
2026-05-08 00:31 50.01966 19.44077 24635 ft 340 kts 135°
2026-05-08 00:31 50.00433 19.46872 25189 ft 340 kts 135°
2026-05-08 00:31 49.98898 19.49670 25686 ft 342 kts 135°
2026-05-08 00:32 49.97372 19.52461 26185 ft 343 kts 136°
2026-05-08 00:32 49.95810 19.55299 26777 ft 340 kts 135°
2026-05-08 00:32 49.94291 19.58058 27379 ft 337 kts 136°
2026-05-08 00:32 49.92765 19.60837 27897 ft 335 kts 136°
2026-05-08 00:33 49.91257 19.63559 28403 ft 334 kts 136°
2026-05-08 00:33 49.89758 19.66272 28908 ft 333 kts 137°
2026-05-08 00:33 49.88251 19.69004 29474 ft 329 kts 137°
2026-05-08 00:33 49.86808 19.71696 30000 ft 327 kts 135°
2026-05-08 00:34 49.85420 19.74508 30481 ft 327 kts 133°
2026-05-08 00:34 49.84092 19.77312 30915 ft 325 kts 133°
2026-05-08 00:34 49.82761 19.80133 31274 ft 326 kts 133°
2026-05-08 00:34 49.81418 19.82961 31614 ft 326 kts 134°
2026-05-08 00:35 49.80077 19.85761 31885 ft 329 kts 134°
2026-05-08 00:35 49.78711 19.88588 32148 ft 331 kts 134°
2026-05-08 00:35 49.77311 19.91459 32251 ft 339 kts 134°
2026-05-08 00:35 49.75866 19.94412 32332 ft 348 kts 134°
2026-05-08 00:36 49.72874 20.00528 32510 ft 366 kts 134°
2026-05-08 00:36 49.71347 20.03648 32693 ft 371 kts 134°
2026-05-08 00:36 49.69801 20.06820 33076 ft 371 kts 133°
2026-05-08 00:37 49.68241 20.10020 33417 ft 372 kts 134°
2026-05-08 00:37 49.66689 20.13197 33767 ft 372 kts 134°
2026-05-08 00:37 49.65132 20.16373 34031 ft 375 kts 134°
2026-05-08 00:38 49.61932 20.22869 34226 ft 390 kts 134°
2026-05-08 00:38 49.58593 20.29628 34355 ft 407 kts 134°
2026-05-08 00:39 49.55093 20.36691 34446 ft 425 kts 134°
2026-05-08 00:39 49.53289 20.40328 34549 ft 432 kts 133°
2026-05-08 00:39 49.51462 20.44019 34846 ft 432 kts 133°
2026-05-08 00:39 49.49648 20.47684 35055 ft 435 kts 133°
2026-05-08 00:40 49.47830 20.51355 35340 ft 436 kts 133°
2026-05-08 00:40 49.45979 20.55082 35568 ft 437 kts 133°
2026-05-08 00:40 49.44159 20.58740 35785 ft 438 kts 133°
2026-05-08 00:40 49.42302 20.62459 36013 ft 440 kts 133°
2026-05-08 00:41 49.40428 20.66125 36335 ft 438 kts 135°
2026-05-08 00:41 49.38413 20.69600 36644 ft 436 kts 139°
2026-05-08 00:41 49.36273 20.72941 36843 ft 437 kts 141°
2026-05-08 00:41 49.34110 20.76154 37004 ft 439 kts 141°
2026-05-08 00:42 49.31900 20.79377 37023 ft 439 kts 141°
2026-05-08 00:42 49.27519 20.85769 37026 ft 436 kts 141°
2026-05-08 00:43 49.22782 20.91393 37030 ft 428 kts 153°
2026-05-08 00:43 49.17666 20.95916 37026 ft 427 kts 155°
2026-05-08 00:44 49.12524 21.00377 37026 ft 428 kts 155°
2026-05-08 00:44 49.07427 21.04973 37025 ft 427 kts 154°
2026-05-08 00:45 49.02321 21.09690 37019 ft 430 kts 154°
2026-05-08 00:45 48.97132 21.13975 37015 ft 423 kts 162°
2026-05-08 00:46 48.91560 21.16680 37025 ft 419 kts 170°
2026-05-08 00:46 48.85929 21.18665 37023 ft 419 kts 172°
2026-05-08 00:47 48.80253 21.20591 37016 ft 418 kts 171°
2026-05-08 00:47 48.74559 21.22572 37015 ft 419 kts 171°
2026-05-08 00:48 48.68914 21.24567 37018 ft 418 kts 171°
2026-05-08 00:48 48.63240 21.26343 37016 ft 417 kts 174°
2026-05-08 00:49 48.57531 21.27829 37029 ft 417 kts 174°
2026-05-08 00:49 48.51812 21.29352 37012 ft 418 kts 172°
2026-05-08 00:50 48.46191 21.31625 37023 ft 420 kts 167°
2026-05-08 00:50 48.40625 21.34253 37011 ft 422 kts 167°
2026-05-08 00:51 48.35048 21.36886 37013 ft 422 kts 167°
2026-05-08 00:51 48.29443 21.39478 37007 ft 422 kts 167°
2026-05-08 00:52 48.23844 21.42037 37009 ft 423 kts 167°
2026-05-08 00:52 48.18248 21.44571 37011 ft 422 kts 167°
2026-05-08 00:53 48.12607 21.47118 37008 ft 422 kts 167°
2026-05-08 00:53 48.07021 21.49628 37011 ft 423 kts 167°